Location: Pedholt
(56.0260°N, 10.2097°E)
Time: 07:33:28
(UTC+00:00)

SR - Pass Details

Date: 29 July 2021
Orbit: 581 x 874 km, 66.7° (Epoch: 24 September)

Event Time Altitude Azimuth Distance (km) Brightness Sun altitude
Rises 09:42:07 0° 277° (W) 3,370 ? 47.9°
Reaches altitude 10° 09:45:00 10° 288° (WNW) 2,395 ? 48.1°
Maximum altitude 09:49:41 28° 347° (NNW) 1,426 ? 48.5°
Drops below altitude 10° 09:54:05 10° 46° (NE) 2,233 ? 48.8°
Sets 09:56:41 0° 59° (ENE) 3,101 ? 49.0°
